Date_Time,Julian_Date,Latitude,Longitude,Instrument_Depth,U,V,Speed,Direction
(yyyy-mm-dd hh:mn:ss UTC),(JD),(+ deg. North),(+ deg. East),(m),(cm/s),(cm/s),(cm/s),(deg True)
1984-08-03 18:00:00 UTC,2445916.250000,28.7467,-95.2267,0192,-10.57,-9.18,14.0000,229.0000
1984-08-03 18:30:00 UTC,2445916.270833,28.7467,-95.2267,0192,-9.90,-9.90,14.0000,225.0000
1984-08-03 19:00:00 UTC,2445916.291667,28.7467,-95.2267,0192,-9.51,-8.87,13.0000,227.0000
1984-08-03 19:30:00 UTC,2445916.312500,28.7467,-95.2267,0192,-9.33,-7.55,12.0000,231.0000
1984-08-03 20:00:00 UTC,2445916.333333,28.7467,-95.2267,0192,-8.04,-7.50,11.0000,227.0000
1984-08-03 20:30:00 UTC,2445916.354167,28.7467,-95.2267,0192,-7.50,-8.04,11.0000,223.0000
1984-08-03 21:00:00 UTC,2445916.375000,28.7467,-95.2267,0192,-7.07,-8.43,11.0000,220.0000
1984-08-03 21:30:00 UTC,2445916.395833,28.7467,-95.2267,0192,-6.47,-8.90,11.0000,216.0000
1984-08-03 22:00:00 UTC,2445916.416667,28.7467,-95.2267,0192,-6.71,-9.95,12.0000,214.0000
1984-08-03 22:30:00 UTC,2445916.437500,28.7467,-95.2267,0192,-7.62,-11.74,14.0000,213.0000
1984-08-03 23:00:00 UTC,2445916.458333,28.7467,-95.2267,0192,-7.00,-12.12,14.0000,210.0000
1984-08-03 23:30:00 UTC,2445916.479167,28.7467,-95.2267,0192,-5.69,-12.79,14.0000,204.0000
1984-08-04 00:00:00 UTC,2445916.500000,28.7467,-95.2267,0192,-5.73,-14.94,16.0000,201.0000
1984-08-04 00:30:00 UTC,2445916.520833,28.7467,-95.2267,0192,-5.86,-17.02,18.0000,199.0000
1984-08-04 01:00:00 UTC,2445916.541667,28.7467,-95.2267,0192,-6.19,-17.96,19.0000,199.0000
1984-08-04 01:30:00 UTC,2445916.562500,28.7467,-95.2267,0192,-6.50,-17.85,19.0000,200.0000
1984-08-04 02:00:00 UTC,2445916.583333,28.7467,-95.2267,0192,-8.03,-17.22,19.0000,205.0000
1984-08-04 02:30:00 UTC,2445916.604167,28.7467,-95.2267,0192,-9.79,-16.29,19.0000,211.0000
1984-08-04 03:00:00 UTC,2445916.625000,28.7467,-95.2267,0192,-10.89,-16.77,20.0000,213.0000
1984-08-04 03:30:00 UTC,2445916.645833,28.7467,-95.2267,0192,-10.60,-16.96,20.0000,212.0000
1984-08-04 04:00:00 UTC,2445916.666667,28.7467,-95.2267,0192,-9.50,-16.45,19.0000,210.0000
1984-08-04 04:30:00 UTC,2445916.687500,28.7467,-95.2267,0192,-8.17,-16.04,18.0000,207.0000
1984-08-04 05:00:00 UTC,2445916.708333,28.7467,-95.2267,0192,-7.32,-16.44,18.0000,204.0000
1984-08-04 05:30:00 UTC,2445916.729167,28.7467,-95.2267,0192,-7.73,-17.36,19.0000,204.0000
1984-08-04 06:00:00 UTC,2445916.750000,28.7467,-95.2267,0192,-7.61,-16.31,18.0000,205.0000
1984-08-04 06:30:00 UTC,2445916.770833,28.7467,-95.2267,0192,-8.17,-16.04,18.0000,207.0000
1984-08-04 07:00:00 UTC,2445916.791667,28.7467,-95.2267,0192,-7.89,-16.18,18.0000,206.0000
1984-08-04 07:30:00 UTC,2445916.812500,28.7467,-95.2267,0192,-7.61,-16.31,18.0000,205.0000
1984-08-04 08:00:00 UTC,2445916.833333,28.7467,-95.2267,0192,-7.98,-15.01,17.0000,208.0000
1984-08-04 08:30:00 UTC,2445916.854167,28.7467,-95.2267,0192,-8.82,-12.14,15.0000,216.0000
1984-08-04 09:00:00 UTC,2445916.875000,28.7467,-95.2267,0192,-9.64,-11.49,15.0000,220.0000
1984-08-04 09:30:00 UTC,2445916.895833,28.7467,-95.2267,0192,-9.84,-11.32,15.0000,221.0000
1984-08-04 10:00:00 UTC,2445916.916667,28.7467,-95.2267,0192,-10.23,-10.97,15.0000,223.0000
1984-08-04 10:30:00 UTC,2445916.937500,28.7467,-95.2267,0192,-10.97,-10.23,15.0000,227.0000
1984-08-04 11:00:00 UTC,2445916.958333,28.7467,-95.2267,0192,-12.26,-10.28,16.0000,230.0000
1984-08-04 11:30:00 UTC,2445916.979167,28.7467,-95.2267,0192,-12.61,-9.85,16.0000,232.0000
1984-08-04 12:00:00 UTC,2445917.000000,28.7467,-95.2267,0192,-12.14,-8.82,15.0000,234.0000
1984-08-04 12:30:00 UTC,2445917.020833,28.7467,-95.2267,0192,-11.98,-9.03,15.0000,233.0000
1984-08-04 13:00:00 UTC,2445917.041667,28.7467,-95.2267,0192,-11.49,-9.64,15.0000,230.0000
1984-08-04 13:30:00 UTC,2445917.062500,28.7467,-95.2267,0192,-12.08,-10.50,16.0000,229.0000
1984-08-04 14:00:00 UTC,2445917.083333,28.7467,-95.2267,0192,-13.02,-10.93,17.0000,230.0000
1984-08-04 14:30:00 UTC,2445917.104167,28.7467,-95.2267,0192,-13.02,-10.93,17.0000,230.0000
1984-08-04 15:00:00 UTC,2445917.125000,28.7467,-95.2267,0192,-12.63,-11.38,17.0000,228.0000
1984-08-04 15:30:00 UTC,2445917.145833,28.7467,-95.2267,0192,-12.23,-11.81,17.0000,226.0000
1984-08-04 16:00:00 UTC,2445917.166667,28.7467,-95.2267,0192,-12.23,-11.81,17.0000,226.0000
1984-08-04 16:30:00 UTC,2445917.187500,28.7467,-95.2267,0192,-12.43,-11.59,17.0000,227.0000
1984-08-04 17:00:00 UTC,2445917.208333,28.7467,-95.2267,0192,-12.28,-13.16,18.0000,223.0000
1984-08-04 17:30:00 UTC,2445917.229167,28.7467,-95.2267,0192,-10.58,-14.56,18.0000,216.0000
1984-08-04 18:00:00 UTC,2445917.250000,28.7467,-95.2267,0192,-10.32,-14.74,18.0000,215.0000
1984-08-04 18:30:00 UTC,2445917.270833,28.7467,-95.2267,0192,-10.23,-13.58,17.0000,217.0000
1984-08-04 19:00:00 UTC,2445917.291667,28.7467,-95.2267,0192,-8.39,-12.44,15.0000,214.0000
1984-08-04 19:30:00 UTC,2445917.312500,28.7467,-95.2267,0192,-4.65,-9.97,11.0000,205.0000
1984-08-04 20:00:00 UTC,2445917.333333,28.7467,-95.2267,0192,-3.75,-9.27,10.0000,202.0000
1984-08-04 20:30:00 UTC,2445917.354167,28.7467,-95.2267,0192,-4.82,-9.89,11.0000,206.0000
1984-08-04 21:00:00 UTC,2445917.375000,28.7467,-95.2267,0192,-5.83,-9.33,11.0000,212.0000
1984-08-04 21:30:00 UTC,2445917.395833,28.7467,-95.2267,0192,-6.47,-8.90,11.0000,216.0000
1984-08-04 22:00:00 UTC,2445917.416667,28.7467,-95.2267,0192,-5.45,-8.39,10.0000,213.0000
1984-08-04 22:30:00 UTC,2445917.437500,28.7467,-95.2267,0192,-4.65,-9.97,11.0000,205.0000
1984-08-04 23:00:00 UTC,2445917.458333,28.7467,-95.2267,0192,-4.30,-11.20,12.0000,201.0000
1984-08-04 23:30:00 UTC,2445917.479167,28.7467,-95.2267,0192,-4.66,-12.14,13.0000,201.0000
1984-08-05 00:00:00 UTC,2445917.500000,28.7467,-95.2267,0192,-6.10,-13.70,15.0000,204.0000
1984-08-05 00:30:00 UTC,2445917.520833,28.7467,-95.2267,0192,-7.01,-14.38,16.0000,206.0000
1984-08-05 01:00:00 UTC,2445917.541667,28.7467,-95.2267,0192,-7.26,-14.26,16.0000,207.0000
1984-08-05 01:30:00 UTC,2445917.562500,28.7467,-95.2267,0192,-7.76,-13.99,16.0000,209.0000
1984-08-05 02:00:00 UTC,2445917.583333,28.7467,-95.2267,0192,-7.50,-12.99,15.0000,210.0000
1984-08-05 02:30:00 UTC,2445917.604167,28.7467,-95.2267,0192,-6.36,-12.47,14.0000,207.0000
1984-08-05 03:00:00 UTC,2445917.625000,28.7467,-95.2267,0192,-5.47,-12.89,14.0000,203.0000
1984-08-05 03:30:00 UTC,2445917.645833,28.7467,-95.2267,0192,-5.24,-12.98,14.0000,202.0000
1984-08-05 04:00:00 UTC,2445917.666667,28.7467,-95.2267,0192,-5.47,-12.89,14.0000,203.0000
1984-08-05 04:30:00 UTC,2445917.687500,28.7467,-95.2267,0192,-6.51,-14.62,16.0000,204.0000
1984-08-05 05:00:00 UTC,2445917.708333,28.7467,-95.2267,0192,-7.45,-15.28,17.0000,206.0000
1984-08-05 05:30:00 UTC,2445917.729167,28.7467,-95.2267,0192,-9.54,-15.26,18.0000,212.0000
1984-08-05 06:00:00 UTC,2445917.750000,28.7467,-95.2267,0192,-11.08,-14.18,18.0000,218.0000
1984-08-05 06:30:00 UTC,2445917.770833,28.7467,-95.2267,0192,-11.57,-13.79,18.0000,220.0000
1984-08-05 07:00:00 UTC,2445917.791667,28.7467,-95.2267,0192,-12.21,-14.55,19.0000,220.0000
1984-08-05 07:30:00 UTC,2445917.812500,28.7467,-95.2267,0192,-13.64,-14.63,20.0000,223.0000
1984-08-05 08:00:00 UTC,2445917.833333,28.7467,-95.2267,0192,-14.14,-14.14,20.0000,225.0000
1984-08-05 08:30:00 UTC,2445917.854167,28.7467,-95.2267,0192,-13.89,-14.39,20.0000,224.0000
1984-08-05 09:00:00 UTC,2445917.875000,28.7467,-95.2267,0192,-13.38,-14.86,20.0000,222.0000
1984-08-05 09:30:00 UTC,2445917.895833,28.7467,-95.2267,0192,-13.64,-14.63,20.0000,223.0000
1984-08-05 10:00:00 UTC,2445917.916667,28.7467,-95.2267,0192,-12.50,-12.95,18.0000,224.0000
1984-08-05 10:30:00 UTC,2445917.937500,28.7467,-95.2267,0192,-11.70,-10.91,16.0000,227.0000
1984-08-05 11:00:00 UTC,2445917.958333,28.7467,-95.2267,0192,-11.82,-9.23,15.0000,232.0000
1984-08-05 11:30:00 UTC,2445917.979167,28.7467,-95.2267,0192,-11.47,-8.03,14.0000,235.0000
1984-08-05 12:00:00 UTC,2445918.000000,28.7467,-95.2267,0192,-10.65,-7.46,13.0000,235.0000
1984-08-05 12:30:00 UTC,2445918.020833,28.7467,-95.2267,0192,-9.81,-8.53,13.0000,229.0000
1984-08-05 13:00:00 UTC,2445918.041667,28.7467,-95.2267,0192,-9.00,-10.72,14.0000,220.0000
1984-08-05 13:30:00 UTC,2445918.062500,28.7467,-95.2267,0192,-8.39,-12.44,15.0000,214.0000
1984-08-05 14:00:00 UTC,2445918.083333,28.7467,-95.2267,0192,-7.50,-12.99,15.0000,210.0000
1984-08-05 14:30:00 UTC,2445918.104167,28.7467,-95.2267,0192,-6.57,-12.36,14.0000,208.0000
1984-08-05 15:00:00 UTC,2445918.125000,28.7467,-95.2267,0192,-5.69,-12.79,14.0000,204.0000
1984-08-05 15:30:00 UTC,2445918.145833,28.7467,-95.2267,0192,-4.66,-12.14,13.0000,201.0000
1984-08-05 16:00:00 UTC,2445918.166667,28.7467,-95.2267,0192,-4.66,-12.14,13.0000,201.0000
1984-08-05 16:30:00 UTC,2445918.187500,28.7467,-95.2267,0192,-5.47,-12.89,14.0000,203.0000
1984-08-05 17:00:00 UTC,2445918.208333,28.7467,-95.2267,0192,-6.10,-13.70,15.0000,204.0000
1984-08-05 17:30:00 UTC,2445918.229167,28.7467,-95.2267,0192,-6.51,-14.62,16.0000,204.0000
1984-08-05 18:00:00 UTC,2445918.250000,28.7467,-95.2267,0192,-6.25,-14.73,16.0000,203.0000
1984-08-05 18:30:00 UTC,2445918.270833,28.7467,-95.2267,0192,-6.58,-13.48,15.0000,206.0000
1984-08-05 19:00:00 UTC,2445918.291667,28.7467,-95.2267,0192,-7.95,-12.72,15.0000,212.0000
1984-08-05 19:30:00 UTC,2445918.312500,28.7467,-95.2267,0192,-9.03,-11.98,15.0000,217.0000
1984-08-05 20:00:00 UTC,2445918.333333,28.7467,-95.2267,0192,-8.82,-12.14,15.0000,216.0000
1984-08-05 20:30:00 UTC,2445918.354167,28.7467,-95.2267,0192,-8.60,-12.29,15.0000,215.0000
1984-08-05 21:00:00 UTC,2445918.375000,28.7467,-95.2267,0192,-8.23,-11.33,14.0000,216.0000
1984-08-05 21:30:00 UTC,2445918.395833,28.7467,-95.2267,0192,-8.00,-10.24,13.0000,218.0000
1984-08-05 22:00:00 UTC,2445918.416667,28.7467,-95.2267,0192,-7.82,-10.38,13.0000,217.0000
1984-08-05 22:30:00 UTC,2445918.437500,28.7467,-95.2267,0192,-8.00,-10.24,13.0000,218.0000
1984-08-05 23:00:00 UTC,2445918.458333,28.7467,-95.2267,0192,-8.70,-9.66,13.0000,222.0000
1984-08-05 23:30:00 UTC,2445918.479167,28.7467,-95.2267,0192,-8.87,-9.51,13.0000,223.0000
1984-08-06 00:00:00 UTC,2445918.500000,28.7467,-95.2267,0192,-9.35,-9.03,13.0000,226.0000
1984-08-06 00:30:00 UTC,2445918.520833,28.7467,-95.2267,0192,-8.78,-6.62,11.0000,233.0000
1984-08-06 01:00:00 UTC,2445918.541667,28.7467,-95.2267,0192,-8.39,-5.45,10.0000,237.0000
1984-08-06 01:30:00 UTC,2445918.562500,28.7467,-95.2267,0192,-8.09,-5.88,10.0000,234.0000
1984-08-06 02:00:00 UTC,2445918.583333,28.7467,-95.2267,0192,-6.69,-6.02,9.0000,228.0000
1984-08-06 02:30:00 UTC,2445918.604167,28.7467,-95.2267,0192,-6.36,-6.36,9.0000,225.0000
1984-08-06 03:00:00 UTC,2445918.625000,28.7467,-95.2267,0192,-5.12,-4.77,7.0000,227.0000
1984-08-06 03:30:00 UTC,2445918.645833,28.7467,-95.2267,0192,-3.66,-3.41,5.0000,227.0000
1984-08-06 04:00:00 UTC,2445918.666667,28.7467,-95.2267,0192,-3.02,-2.62,4.0000,229.0000
1984-08-06 04:30:00 UTC,2445918.687500,28.7467,-95.2267,0192,-2.88,-2.78,4.0000,226.0000
1984-08-06 05:00:00 UTC,2445918.708333,28.7467,-95.2267,0192,-2.73,-2.93,4.0000,223.0000
1984-08-06 05:30:00 UTC,2445918.729167,28.7467,-95.2267,0192,-4.01,-4.46,6.0000,222.0000
1984-08-06 06:00:00 UTC,2445918.750000,28.7467,-95.2267,0192,-3.91,-5.80,7.0000,214.0000
1984-08-06 06:30:00 UTC,2445918.770833,28.7467,-95.2267,0192,-2.39,-6.58,7.0000,200.0000
1984-08-06 07:00:00 UTC,2445918.791667,28.7467,-95.2267,0192,-2.39,-6.58,7.0000,200.0000
1984-08-06 07:30:00 UTC,2445918.812500,28.7467,-95.2267,0192,-4.47,-6.63,8.0000,214.0000
1984-08-06 08:00:00 UTC,2445918.833333,28.7467,-95.2267,0192,-4.50,-5.36,7.0000,220.0000
1984-08-06 08:30:00 UTC,2445918.854167,28.7467,-95.2267,0192,-4.59,-5.28,7.0000,221.0000
1984-08-06 09:00:00 UTC,2445918.875000,28.7467,-95.2267,0192,-4.09,-4.39,6.0000,223.0000
1984-08-06 09:30:00 UTC,2445918.895833,28.7467,-95.2267,0192,-3.47,-3.60,5.0000,224.0000
1984-08-06 10:00:00 UTC,2445918.916667,28.7467,-95.2267,0192,-2.41,-3.19,4.0000,217.0000
1984-08-06 10:30:00 UTC,2445918.937500,28.7467,-95.2267,0192,-0.62,-1.90,2.0000,198.0000
1984-08-06 11:00:00 UTC,2445918.958333,28.7467,-95.2267,0192,0.54,-0.84,1.0000,147.0000
1984-08-06 11:30:00 UTC,2445918.979167,28.7467,-95.2267,0192,2.84,-0.98,3.0000,109.0000
1984-08-06 12:00:00 UTC,2445919.000000,28.7467,-95.2267,0192,3.94,-0.69,4.0000,100.0000
1984-08-06 12:30:00 UTC,2445919.020833,28.7467,-95.2267,0192,4.99,-0.26,5.0000,93.0000
1984-08-06 13:00:00 UTC,2445919.041667,28.7467,-95.2267,0192,2.97,-0.42,3.0000,98.0000
1984-08-06 13:30:00 UTC,2445919.062500,28.7467,-95.2267,0192,1.80,-0.88,2.0000,116.0000
1984-08-06 14:00:00 UTC,2445919.083333,28.7467,-95.2267,0192,2.70,-1.32,3.0000,116.0000
1984-08-06 14:30:00 UTC,2445919.104167,28.7467,-95.2267,0192,3.68,-1.56,4.0000,113.0000
1984-08-06 15:00:00 UTC,2445919.125000,28.7467,-95.2267,0192,4.46,-2.27,5.0000,117.0000
1984-08-06 15:30:00 UTC,2445919.145833,28.7467,-95.2267,0192,3.50,-1.94,4.0000,119.0000
1984-08-06 16:00:00 UTC,2445919.166667,28.7467,-95.2267,0192,0.63,0.78,1.0000,39.0000
1984-08-06 16:30:00 UTC,2445919.187500,28.7467,-95.2267,0192,-1.89,2.33,3.0000,321.0000
1984-08-06 17:00:00 UTC,2445919.208333,28.7467,-95.2267,0192,-3.39,2.12,4.0000,302.0000
1984-08-06 17:30:00 UTC,2445919.229167,28.7467,-95.2267,0192,-5.74,1.75,6.0000,287.0000
1984-08-06 18:00:00 UTC,2445919.250000,28.7467,-95.2267,0192,-7.79,1.80,8.0000,283.0000
1984-08-06 18:30:00 UTC,2445919.270833,28.7467,-95.2267,0192,-9.70,2.42,10.0000,284.0000
1984-08-06 19:00:00 UTC,2445919.291667,28.7467,-95.2267,0192,-11.64,2.90,12.0000,284.0000
1984-08-06 19:30:00 UTC,2445919.312500,28.7467,-95.2267,0192,-12.76,2.48,13.0000,281.0000
1984-08-06 20:00:00 UTC,2445919.333333,28.7467,-95.2267,0192,-11.74,2.49,12.0000,282.0000
1984-08-06 20:30:00 UTC,2445919.354167,28.7467,-95.2267,0192,-9.66,2.59,10.0000,285.0000
1984-08-06 21:00:00 UTC,2445919.375000,28.7467,-95.2267,0192,-6.85,1.46,7.0000,282.0000
1984-08-06 21:30:00 UTC,2445919.395833,28.7467,-95.2267,0192,-6.99,0.37,7.0000,273.0000
1984-08-06 22:00:00 UTC,2445919.416667,28.7467,-95.2267,0192,-6.98,-0.49,7.0000,266.0000
1984-08-06 22:30:00 UTC,2445919.437500,28.7467,-95.2267,0192,-6.97,-0.61,7.0000,265.0000
1984-08-06 23:00:00 UTC,2445919.458333,28.7467,-95.2267,0192,-6.00,-0.00,6.0000,270.0000
1984-08-06 23:30:00 UTC,2445919.479167,28.7467,-95.2267,0192,-3.94,0.69,4.0000,280.0000
1984-08-07 00:00:00 UTC,2445919.500000,28.7467,-95.2267,0192,-2.30,1.93,3.0000,310.0000
1984-08-07 00:30:00 UTC,2445919.520833,28.7467,-95.2267,0192,-0.78,2.90,3.0000,345.0000
1984-08-07 01:00:00 UTC,2445919.541667,28.7467,-95.2267,0192,-0.47,2.96,3.0000,351.0000
1984-08-07 01:30:00 UTC,2445919.562500,28.7467,-95.2267,0192,-0.67,2.92,3.0000,347.0000
1984-08-07 02:00:00 UTC,2445919.583333,28.7467,-95.2267,0192,-0.73,2.91,3.0000,346.0000
1984-08-07 02:30:00 UTC,2445919.604167,28.7467,-95.2267,0192,-0.21,3.99,4.0000,357.0000
1984-08-07 03:00:00 UTC,2445919.625000,28.7467,-95.2267,0192,1.29,4.83,5.0000,15.0000
1984-08-07 03:30:00 UTC,2445919.645833,28.7467,-95.2267,0192,2.72,5.35,6.0000,27.0000
1984-08-07 04:00:00 UTC,2445919.666667,28.7467,-95.2267,0192,3.44,4.91,6.0000,35.0000
1984-08-07 04:30:00 UTC,2445919.687500,28.7467,-95.2267,0192,3.89,3.15,5.0000,51.0000
1984-08-07 05:00:00 UTC,2445919.708333,28.7467,-95.2267,0192,4.99,0.35,5.0000,86.0000
1984-08-07 05:30:00 UTC,2445919.729167,28.7467,-95.2267,0192,4.33,-2.50,5.0000,120.0000
1984-08-07 06:00:00 UTC,2445919.750000,28.7467,-95.2267,0192,3.69,-4.73,6.0000,142.0000
1984-08-07 06:30:00 UTC,2445919.770833,28.7467,-95.2267,0192,1.65,-5.77,6.0000,164.0000
1984-08-07 07:00:00 UTC,2445919.791667,28.7467,-95.2267,0192,0.49,-6.98,7.0000,176.0000
1984-08-07 07:30:00 UTC,2445919.812500,28.7467,-95.2267,0192,-0.31,-8.99,9.0000,182.0000
1984-08-07 08:00:00 UTC,2445919.833333,28.7467,-95.2267,0192,-2.47,-10.72,11.0000,193.0000
1984-08-07 08:30:00 UTC,2445919.854167,28.7467,-95.2267,0192,-4.30,-10.13,11.0000,203.0000
1984-08-07 09:00:00 UTC,2445919.875000,28.7467,-95.2267,0192,-4.65,-9.97,11.0000,205.0000
1984-08-07 09:30:00 UTC,2445919.895833,28.7467,-95.2267,0192,-4.54,-8.91,10.0000,207.0000
1984-08-07 10:00:00 UTC,2445919.916667,28.7467,-95.2267,0192,-4.36,-7.87,9.0000,209.0000
1984-08-07 10:30:00 UTC,2445919.937500,28.7467,-95.2267,0192,-4.70,-6.47,8.0000,216.0000
1984-08-07 11:00:00 UTC,2445919.958333,28.7467,-95.2267,0192,-5.75,-5.56,8.0000,226.0000
1984-08-07 11:30:00 UTC,2445919.979167,28.7467,-95.2267,0192,-5.20,-4.68,7.0000,228.0000
1984-08-07 12:00:00 UTC,2445920.000000,28.7467,-95.2267,0192,-3.15,-3.89,5.0000,219.0000
1984-08-07 12:30:00 UTC,2445920.020833,28.7467,-95.2267,0192,-1.30,-3.78,4.0000,199.0000
1984-08-07 13:00:00 UTC,2445920.041667,28.7467,-95.2267,0192,0.21,-3.99,4.0000,177.0000
1984-08-07 13:30:00 UTC,2445920.062500,28.7467,-95.2267,0192,1.08,-2.80,3.0000,159.0000
1984-08-07 14:00:00 UTC,2445920.083333,28.7467,-95.2267,0192,1.46,-1.36,2.0000,133.0000
1984-08-07 14:30:00 UTC,2445920.104167,28.7467,-95.2267,0192,1.98,0.28,2.0000,82.0000
1984-08-07 15:00:00 UTC,2445920.125000,28.7467,-95.2267,0192,2.78,2.88,4.0000,44.0000
1984-08-07 15:30:00 UTC,2445920.145833,28.7467,-95.2267,0192,4.17,4.32,6.0000,44.0000
1984-08-07 16:00:00 UTC,2445920.166667,28.7467,-95.2267,0192,5.36,4.50,7.0000,50.0000
1984-08-07 16:30:00 UTC,2445920.187500,28.7467,-95.2267,0192,5.36,4.50,7.0000,50.0000
1984-08-07 17:00:00 UTC,2445920.208333,28.7467,-95.2267,0192,4.68,5.20,7.0000,42.0000
1984-08-07 17:30:00 UTC,2445920.229167,28.7467,-95.2267,0192,4.50,5.36,7.0000,40.0000
1984-08-07 18:00:00 UTC,2445920.250000,28.7467,-95.2267,0192,5.04,4.86,7.0000,46.0000
1984-08-07 18:30:00 UTC,2445920.270833,28.7467,-95.2267,0192,5.44,4.41,7.0000,51.0000
1984-08-07 19:00:00 UTC,2445920.291667,28.7467,-95.2267,0192,5.66,5.66,8.0000,45.0000
1984-08-07 19:30:00 UTC,2445920.312500,28.7467,-95.2267,0192,5.46,5.85,8.0000,43.0000
1984-08-07 20:00:00 UTC,2445920.333333,28.7467,-95.2267,0192,4.46,4.01,6.0000,48.0000
1984-08-07 20:30:00 UTC,2445920.354167,28.7467,-95.2267,0192,3.06,2.57,4.0000,50.0000
1984-08-07 21:00:00 UTC,2445920.375000,28.7467,-95.2267,0192,2.83,2.83,4.0000,45.0000
1984-08-07 21:30:00 UTC,2445920.395833,28.7467,-95.2267,0192,3.35,3.72,5.0000,42.0000
1984-08-07 22:00:00 UTC,2445920.416667,28.7467,-95.2267,0192,4.31,5.52,7.0000,38.0000
1984-08-07 22:30:00 UTC,2445920.437500,28.7467,-95.2267,0192,4.70,6.47,8.0000,36.0000
1984-08-07 23:00:00 UTC,2445920.458333,28.7467,-95.2267,0192,6.16,7.88,10.0000,38.0000
1984-08-07 23:30:00 UTC,2445920.479167,28.7467,-95.2267,0192,7.71,9.19,12.0000,40.0000
1984-08-08 00:00:00 UTC,2445920.500000,28.7467,-95.2267,0192,8.23,11.33,14.0000,36.0000
1984-08-08 00:30:00 UTC,2445920.520833,28.7467,-95.2267,0192,9.21,16.62,19.0000,29.0000
1984-08-08 01:00:00 UTC,2445920.541667,28.7467,-95.2267,0192,8.60,20.25,22.0000,23.0000
1984-08-08 01:30:00 UTC,2445920.562500,28.7467,-95.2267,0192,9.38,22.09,24.0000,23.0000
1984-08-08 02:00:00 UTC,2445920.583333,28.7467,-95.2267,0192,10.52,21.57,24.0000,26.0000
1984-08-08 02:30:00 UTC,2445920.604167,28.7467,-95.2267,0192,10.90,21.38,24.0000,27.0000
1984-08-08 03:00:00 UTC,2445920.625000,28.7467,-95.2267,0192,9.64,19.77,22.0000,26.0000
1984-08-08 03:30:00 UTC,2445920.645833,28.7467,-95.2267,0192,7.81,18.41,20.0000,23.0000
1984-08-08 04:00:00 UTC,2445920.666667,28.7467,-95.2267,0192,6.50,17.85,19.0000,20.0000
1984-08-08 04:30:00 UTC,2445920.687500,28.7467,-95.2267,0192,5.25,16.17,17.0000,18.0000
1984-08-08 05:00:00 UTC,2445920.708333,28.7467,-95.2267,0192,4.14,15.45,16.0000,15.0000
1984-08-08 05:30:00 UTC,2445920.729167,28.7467,-95.2267,0192,3.60,15.59,16.0000,13.0000
1984-08-08 06:00:00 UTC,2445920.750000,28.7467,-95.2267,0192,3.12,14.67,15.0000,12.0000
1984-08-08 06:30:00 UTC,2445920.770833,28.7467,-95.2267,0192,2.67,13.74,14.0000,11.0000
1984-08-08 07:00:00 UTC,2445920.791667,28.7467,-95.2267,0192,1.81,12.87,13.0000,8.0000
1984-08-08 07:30:00 UTC,2445920.812500,28.7467,-95.2267,0192,1.36,12.93,13.0000,6.0000
1984-08-08 08:00:00 UTC,2445920.833333,28.7467,-95.2267,0192,0.63,11.98,12.0000,3.0000
1984-08-08 08:30:00 UTC,2445920.854167,28.7467,-95.2267,0192,-0.35,9.99,10.0000,358.0000
1984-08-08 09:00:00 UTC,2445920.875000,28.7467,-95.2267,0192,-0.94,8.95,9.0000,354.0000
1984-08-08 09:30:00 UTC,2445920.895833,28.7467,-95.2267,0192,-1.25,8.91,9.0000,352.0000
1984-08-08 10:00:00 UTC,2445920.916667,28.7467,-95.2267,0192,-1.11,7.92,8.0000,352.0000
1984-08-08 10:30:00 UTC,2445920.937500,28.7467,-95.2267,0192,-0.42,5.99,6.0000,356.0000
1984-08-08 11:00:00 UTC,2445920.958333,28.7467,-95.2267,0192,0.31,5.99,6.0000,3.0000
1984-08-08 11:30:00 UTC,2445920.979167,28.7467,-95.2267,0192,0.95,4.91,5.0000,11.0000
1984-08-08 12:00:00 UTC,2445921.000000,28.7467,-95.2267,0192,1.95,5.67,6.0000,19.0000
1984-08-08 12:30:00 UTC,2445921.020833,28.7467,-95.2267,0192,2.91,5.25,6.0000,29.0000
1984-08-08 13:00:00 UTC,2445921.041667,28.7467,-95.2267,0192,3.78,4.66,6.0000,39.0000
1984-08-08 13:30:00 UTC,2445921.062500,28.7467,-95.2267,0192,3.53,4.85,6.0000,36.0000
1984-08-08 14:00:00 UTC,2445921.083333,28.7467,-95.2267,0192,3.50,6.06,7.0000,30.0000
1984-08-08 14:30:00 UTC,2445921.104167,28.7467,-95.2267,0192,4.59,6.55,8.0000,35.0000
1984-08-08 15:00:00 UTC,2445921.125000,28.7467,-95.2267,0192,4.93,6.30,8.0000,38.0000
1984-08-08 15:30:00 UTC,2445921.145833,28.7467,-95.2267,0192,4.36,7.87,9.0000,29.0000
1984-08-08 16:00:00 UTC,2445921.166667,28.7467,-95.2267,0192,4.69,11.05,12.0000,23.0000
1984-08-08 16:30:00 UTC,2445921.187500,28.7467,-95.2267,0192,4.23,12.29,13.0000,19.0000
1984-08-08 17:00:00 UTC,2445921.208333,28.7467,-95.2267,0192,3.62,13.52,14.0000,15.0000
1984-08-08 17:30:00 UTC,2445921.229167,28.7467,-95.2267,0192,2.48,12.76,13.0000,11.0000
1984-08-08 18:00:00 UTC,2445921.250000,28.7467,-95.2267,0192,2.03,12.84,13.0000,9.0000
1984-08-08 18:30:00 UTC,2445921.270833,28.7467,-95.2267,0192,1.72,10.86,11.0000,9.0000
1984-08-08 19:00:00 UTC,2445921.291667,28.7467,-95.2267,0192,0.87,9.96,10.0000,5.0000
1984-08-08 19:30:00 UTC,2445921.312500,28.7467,-95.2267,0192,0.17,10.00,10.0000,1.0000
1984-08-08 20:00:00 UTC,2445921.333333,28.7467,-95.2267,0192,0.17,10.00,10.0000,1.0000
1984-08-08 20:30:00 UTC,2445921.354167,28.7467,-95.2267,0192,0.78,8.97,9.0000,5.0000
1984-08-08 21:00:00 UTC,2445921.375000,28.7467,-95.2267,0192,0.85,6.95,7.0000,7.0000
1984-08-08 21:30:00 UTC,2445921.395833,28.7467,-95.2267,0192,-0.10,6.00,6.0000,359.0000
1984-08-08 22:00:00 UTC,2445921.416667,28.7467,-95.2267,0192,-1.25,5.87,6.0000,348.0000
1984-08-08 22:30:00 UTC,2445921.437500,28.7467,-95.2267,0192,-1.85,5.71,6.0000,342.0000
1984-08-08 23:00:00 UTC,2445921.458333,28.7467,-95.2267,0192,-2.51,6.54,7.0000,339.0000
1984-08-08 23:30:00 UTC,2445921.479167,28.7467,-95.2267,0192,-2.74,6.44,7.0000,337.0000
1984-08-09 00:00:00 UTC,2445921.500000,28.7467,-95.2267,0192,-2.96,6.34,7.0000,335.0000
1984-08-09 00:30:00 UTC,2445921.520833,28.7467,-95.2267,0192,-3.13,7.36,8.0000,337.0000
1984-08-09 01:00:00 UTC,2445921.541667,28.7467,-95.2267,0192,-2.60,7.56,8.0000,341.0000
1984-08-09 01:30:00 UTC,2445921.562500,28.7467,-95.2267,0192,-2.18,8.73,9.0000,346.0000
1984-08-09 02:00:00 UTC,2445921.583333,28.7467,-95.2267,0192,-0.78,8.97,9.0000,355.0000
1984-08-09 02:30:00 UTC,2445921.604167,28.7467,-95.2267,0192,0.52,9.99,10.0000,3.0000
1984-08-09 03:00:00 UTC,2445921.625000,28.7467,-95.2267,0192,1.91,10.83,11.0000,10.0000
1984-08-09 03:30:00 UTC,2445921.645833,28.7467,-95.2267,0192,3.40,10.46,11.0000,18.0000
1984-08-09 04:00:00 UTC,2445921.666667,28.7467,-95.2267,0192,4.47,10.05,11.0000,24.0000
1984-08-09 04:30:00 UTC,2445921.687500,28.7467,-95.2267,0192,4.65,9.97,11.0000,25.0000
1984-08-09 05:00:00 UTC,2445921.708333,28.7467,-95.2267,0192,4.65,9.97,11.0000,25.0000
1984-08-09 05:30:00 UTC,2445921.729167,28.7467,-95.2267,0192,5.45,10.69,12.0000,27.0000
1984-08-09 06:00:00 UTC,2445921.750000,28.7467,-95.2267,0192,5.90,11.58,13.0000,27.0000
1984-08-09 06:30:00 UTC,2445921.770833,28.7467,-95.2267,0192,6.36,12.47,14.0000,27.0000
1984-08-09 07:00:00 UTC,2445921.791667,28.7467,-95.2267,0192,6.30,11.37,13.0000,29.0000